EN

Hourly Weather Rawtenstall

Today, 25 January, Monday

Time Temperature Precipitation Wind Pressure Humidity
00:00 0°C° 0 mm 1 mps 735 mmHg 70%
01:00 0°C° 0 mm 1 mps 736 mmHg 75%
02:00 -2°C° 0 mm 2 mps 736 mmHg 80%
03:00 -2°C° 0 mm 2 mps 736 mmHg 85%
04:00 -2°C° 0 mm 2 mps 736 mmHg 87%
05:00 -1°C° 0 mm 3 mps 736 mmHg 88%
06:00 -1°C° 0 mm 3 mps 737 mmHg 92%
07:00 -1°C° 0 mm 3 mps 737 mmHg 90%
08:00 -1°C° 0 mm 4 mps 737 mmHg 89%
09:00 -1°C° 0 mm 4 mps 738 mmHg 88%
10:00 0°C° 0 mm 5 mps 738 mmHg 82%
11:00 +1°C° 0 mm 6 mps 738 mmHg 77%
12:00 +2°C° 0 mm 7 mps 739 mmHg 72%
13:00 +2°C° 0 mm 7 mps 739 mmHg 73%
14:00 0°C° 0 mm 7 mps 740 mmHg 74%
15:00 +1°C° 0 mm 6 mps 740 mmHg 74%
16:00 +1°C° 0 mm 6 mps 740 mmHg 78%
17:00 0°C° 0 mm 5 mps 741 mmHg 82%
18:00 -1°C° 0 mm 4 mps 741 mmHg 85%
19:00 -1°C° 0 mm 4 mps 742 mmHg 87%
20:00 0°C° 0 mm 3 mps 742 mmHg 88%
21:00 0°C° 0 mm 3 mps 743 mmHg 89%
22:00 0°C° 0 mm 3 mps 743 mmHg 89%
23:00 0°C° 0 mm 3 mps 743 mmHg 89%

Tomorrow, 26 January, Tuesday

Time Temperature Precipitation Wind Pressure Humidity
00:00 0°C° 0 mm 3 mps 743 mmHg 90%
01:00 0°C° 0 mm 3 mps 743 mmHg 89%
02:00 0°C° 0 mm 3 mps 743 mmHg 89%
03:00 0°C° 0 mm 3 mps 743 mmHg 88%
04:00 -1°C° 0 mm 2 mps 744 mmHg 89%
05:00 -1°C° 0 mm 2 mps 744 mmHg 89%
06:00 -1°C° 0 mm 2 mps 744 mmHg 90%
07:00 -1°C° 0.1 mm 2 mps 744 mmHg 91%
08:00 +1°C° 0.1 mm 2 mps 744 mmHg 93%
09:00 +1°C° 0.1 mm 2 mps 744 mmHg 94%
10:00 +1°C° 0.1 mm 3 mps 744 mmHg 95%
11:00 +1°C° 0.1 mm 3 mps 744 mmHg 95%
12:00 +1°C° 0.1 mm 3 mps 744 mmHg 95%
13:00 +1°C° 0.2 mm 3 mps 743 mmHg 95%
14:00 +1°C° 0.2 mm 3 mps 742 mmHg 95%
15:00 +1°C° 0.2 mm 3 mps 742 mmHg 95%
16:00 +1°C° 0.9 mm 3 mps 742 mmHg 96%
17:00 +1°C° 0.9 mm 3 mps 741 mmHg 96%
18:00 +2°C° 0.9 mm 2 mps 741 mmHg 97%
19:00 +2°C° 0.3 mm 2 mps 741 mmHg 97%
20:00 +3°C° 0.3 mm 1 mps 741 mmHg 97%
21:00 +3°C° 0.3 mm 1 mps 741 mmHg 98%
22:00 +4°C° 0 mm 1 mps 741 mmHg 98%
23:00 +4°C° 0 mm 1 mps 741 mmHg 98%

Day after tomorrow, 27 January, Wednesday

Time Temperature Precipitation Wind Pressure Humidity
00:00 +4°C° 0 mm 1 mps 741 mmHg 97%
01:00 +4°C° 0 mm 1 mps 741 mmHg 98%
02:00 +4°C° 0 mm 1 mps 741 mmHg 98%
03:00 +5°C° 0 mm 1 mps 741 mmHg 98%
04:00 +5°C° 0 mm 1 mps 741 mmHg 98%
05:00 +5°C° 0 mm 1 mps 742 mmHg 98%
06:00 +5°C° 0 mm 1 mps 742 mmHg 98%
07:00 +5°C° 0 mm 1 mps 742 mmHg 98%
08:00 +4°C° 0 mm 0 mps 742 mmHg 98%
09:00 +4°C° 0 mm 0 mps 742 mmHg 98%
10:00 +6°C° 0.1 mm 1 mps 742 mmHg 98%
11:00 +6°C° 0.1 mm 1 mps 742 mmHg 98%
12:00 +6°C° 0.1 mm 1 mps 742 mmHg 98%
13:00 +6°C° 0.1 mm 1 mps 742 mmHg 98%
14:00 +6°C° 0.1 mm 1 mps 741 mmHg 98%
15:00 +6°C° 0.1 mm 1 mps 741 mmHg 98%
16:00 +6°C° 0.1 mm 1 mps 740 mmHg 98%
17:00 +6°C° 0.1 mm 1 mps 740 mmHg 98%
18:00 +5°C° 0.1 mm 2 mps 739 mmHg 98%
19:00 +5°C° 1 mm 2 mps 739 mmHg 98%
20:00 +5°C° 1 mm 2 mps 738 mmHg 98%
21:00 +5°C° 1 mm 2 mps 737 mmHg 98%
22:00 +6°C° 2.8 mm 2 mps 736 mmHg 98%
23:00 +6°C° 2.8 mm 2 mps 735 mmHg 98%

28 January, Thursday

Time Temperature Precipitation Wind Pressure Humidity
00:00 +6°C° 2.8 mm 2 mps 734 mmHg 98%
01:00 +7°C° 1.5 mm 3 mps 733 mmHg 98%
02:00 +6°C° 1.5 mm 4 mps 733 mmHg 98%
03:00 +7°C° 1.5 mm 4 mps 732 mmHg 97%
04:00 +7°C° 0.2 mm 6 mps 732 mmHg 96%
05:00 +6°C° 0.2 mm 7 mps 732 mmHg 94%
06:00 +7°C° 0.2 mm 8 mps 732 mmHg 92%
07:00 +6°C° 0 mm 8 mps 732 mmHg 90%
08:00 +6°C° 0 mm 8 mps 733 mmHg 89%
09:00 +5°C° 0 mm 7 mps 733 mmHg 88%
10:00 +6°C° 0 mm 7 mps 733 mmHg 85%
11:00 +6°C° 0 mm 7 mps 734 mmHg 82%
12:00 +8°C° 0 mm 7 mps 734 mmHg 79%
13:00 +8°C° 0.1 mm 7 mps 733 mmHg 82%
14:00 +8°C° 0.1 mm 6 mps 733 mmHg 84%
15:00 +8°C° 0.1 mm 6 mps 732 mmHg 87%
16:00 +8°C° 0.7 mm 5 mps 732 mmHg 89%
17:00 +7°C° 0.7 mm 5 mps 731 mmHg 92%
18:00 +7°C° 0.7 mm 4 mps 730 mmHg 95%
19:00 +7°C° 3.8 mm 5 mps 729 mmHg 95%
20:00 +7°C° 3.8 mm 5 mps 728 mmHg 95%
21:00 +7°C° 3.8 mm 6 mps 727 mmHg 96%
22:00 +6°C° 1.6 mm 7 mps 728 mmHg 93%
23:00 +5°C° 1.6 mm 9 mps 728 mmHg 90%

29 January, Friday

Time Temperature Precipitation Wind Pressure Humidity
00:00 +5°C° 1.6 mm 10 mps 728 mmHg 87%
01:00 +5°C° 0.1 mm 10 mps 729 mmHg 85%
02:00 +3°C° 0.1 mm 9 mps 730 mmHg 83%
03:00 +3°C° 0.1 mm 9 mps 730 mmHg 81%
04:00 +4°C° 0 mm 8 mps 731 mmHg 81%
05:00 +4°C° 0 mm 8 mps 731 mmHg 82%
06:00 +4°C° 0 mm 8 mps 731 mmHg 83%
07:00 +4°C° 0.1 mm 8 mps 731 mmHg 84%
08:00 +4°C° 0.1 mm 7 mps 730 mmHg 85%
09:00 +3°C° 0.1 mm 7 mps 730 mmHg 86%
10:00 +4°C° 0.1 mm 7 mps 730 mmHg 84%
11:00 +4°C° 0.1 mm 7 mps 730 mmHg 82%
12:00 +5°C° 0.1 mm 7 mps 730 mmHg 79%
13:00 +5°C° 0.1 mm 7 mps 730 mmHg 80%
14:00 +5°C° 0.1 mm 6 mps 730 mmHg 80%
15:00 +5°C° 0.1 mm 5 mps 730 mmHg 80%
16:00 +5°C° 0.5 mm 4 mps 730 mmHg 83%
17:00 +5°C° 0.5 mm 3 mps 731 mmHg 86%
18:00 +5°C° 0.5 mm 2 mps 731 mmHg 89%
19:00 +3°C° 0.7 mm 4 mps 732 mmHg 90%
20:00 +1°C° 0.7 mm 6 mps 732 mmHg 90%
21:00 0°C° 0.7 mm 8 mps 733 mmHg 90%
22:00 -1°C° 0 mm 7 mps 734 mmHg 86%
23:00 -1°C° 0 mm 6 mps 735 mmHg 82%

30 January, Saturday

Time Temperature Precipitation Wind Pressure Humidity
00:00 0°C° 0 mm 5 mps 737 mmHg 77%
01:00 -1°C° 0 mm 4 mps 738 mmHg 78%
02:00 0°C° 0 mm 3 mps 738 mmHg 78%
03:00 -1°C° 0 mm 2 mps 739 mmHg 78%
04:00 -1°C° 0 mm 2 mps 740 mmHg 79%
05:00 -1°C° 0 mm 2 mps 741 mmHg 81%
06:00 -1°C° 0 mm 2 mps 742 mmHg 82%
07:00 +1°C° 0 mm 1 mps 743 mmHg 82%
08:00 +2°C° 0 mm 1 mps 743 mmHg 82%
09:00 +2°C° 0 mm 1 mps 744 mmHg 81%
10:00 +3°C° 0 mm 1 mps 745 mmHg 77%
11:00 +4°C° 0 mm 1 mps 745 mmHg 73%
12:00 +5°C° 0 mm 1 mps 745 mmHg 68%
13:00 +5°C° 0 mm 1 mps 745 mmHg 68%
14:00 +5°C° 0 mm 1 mps 745 mmHg 68%
15:00 +5°C° 0 mm 1 mps 745 mmHg 67%
16:00 +4°C° 0 mm 1 mps 745 mmHg 72%
17:00 +3°C° 0 mm 1 mps 746 mmHg 76%
18:00 +2°C° 0 mm 1 mps 746 mmHg 81%
19:00 +1°C° 0 mm 2 mps 745 mmHg 82%
20:00 +1°C° 0 mm 2 mps 745 mmHg 82%
21:00 +1°C° 0 mm 2 mps 745 mmHg 83%
22:00 0°C° 0 mm 3 mps 744 mmHg 82%
23:00 0°C° 0 mm 3 mps 743 mmHg 80%
Show more